Wind_Speed
24 21 15 19 27 27 30 28 36 34 31 25 21 17 14 15 23 21 24 29 29 29 30 32 32 32 31 36 29 27 30 33 37 41 43 39 28 23 20 14 4 11 14 20 25 21 15 12 11
26 23 9 6 17 12 23 29 33 35 34 29 24 22 22 21 23 29 29 30 31 30 32 32 34 35 32 27 29 29 31 33 37 38 37 22 22 20 18 9 4 10 12 20 25 21 18 13 7
26 26 34 25 27 11 18 22 29 33 34 30 26 25 26 26 27 30 31 31 32 32 32 33 32 29 27 29 31 33 32 33 34 32 22 21 21 18 12 6 4 7 11 16 21 21 21 16 10
24 26 31 42 43 31 27 27 27 30 29 27 28 28 29 31 32 34 34 33 31 30 28 26 22 26 29 28 28 29 30 32 25 20 21 19 14 12 6 6 5 7 12 13 17 16 17 18 12
26 19 36 35 34 35 34 32 29 28 30 32 31 32 31 33 33 29 28 29 23 19 20 21 23 26 25 25 26 27 27 19 18 18 15 14 15 11 7 8 7 10 13 16 15 14 13 13 13
31 33 25 31 30 33 33 30 31 30 30 29 28 29 29 24 24 21 19 19 19 18 21 24 28 29 30 26 27 22 16 17 15 12 11 12 12 12 11 10 10 13 15 16 16 15 11 9 9
28 29 32 27 29 28 27 27 28 28 27 28 26 25 23 18 18 17 18 20 20 20 17 17 17 23 24 25 19 14 15 12 9 9 8 8 12 14 13 13 16 20 24 24 24 27 24 15 9
16 28 28 28 28 25 25 24 24 23 24 26 23 23 22 19 18 17 14 13 12 13 18 20 23 24 15 12 13 13 8 6 9 9 10 13 18 19 20 20 20 20 21 28 31 30 30 27 20
21 13 22 28 28 26 23 23 22 21 22 21 20 21 18 20 19 18 16 14 14 18 22 21 14 10 10 12 7 4 9 14 13 11 11 15 13 17 19 20 19 21 27 30 29 37 33 35 31
15 23 24 21 25 27 23 22 21 21 21 20 20 20 22 21 18 19 18 15 17 12 7 7 8 9 7 2 9 13 14 14 15 14 15 15 15 17 20 20 20 22 26 25 25 29 30 32 35
21 2 21 24 19 19 20 21 22 22 21 19 19 20 19 19 18 13 12 10 8 4 7 7 7 1 6 12 14 14 14 14 16 15 14 16 18 20 21 20 21 23 22 24 24 27 28 24 28
22 10 14 13 18 18 18 17 19 19 17 14 13 13 12 12 10 10 9 7 3 6 6 3 3 12 15 15 14 14 16 18 19 17 15 17 16 16 17 17 19 22 21 23 22 23 21 19 31
15 14 10 6 8 11 11 14 12 9 9 10 10 6 3 5 7 9 8 4 1 2 2 10 15 14 14 14 15 18 17 18 19 16 14 16 15 15 16 17 19 21 22 23 20 23 20 19 23
5 1 4 4 7 7 10 12 11 9 8 12 13 8 6 6 8 8 5 6 5 9 15 16 14 14 13 15 17 17 15 15 15 16 17 14 18 18 20 21 21 22 23 23 24 23 21 21 20
10 6 3 5 9 9 11 10 9 9 13 17 15 8 5 7 8 7 7 10 15 15 16 15 14 15 15 14 14 13 15 17 16 16 17 17 18 19 19 21 21 22 23 23 23 24 20 22 25
2 6 9 3 4 12 14 11 11 12 13 16 18 11 11 13 12 12 14 14 14 15 15 14 15 15 14 15 14 14 14 15 16 17 17 18 19 20 20 21 21 23 23 24 22 22 22 18 21
4 1 4 6 5 2 10 6 13 17 14 16 16 15 16 19 19 16 14 13 13 13 13 14 12 12 12 12 12 12 14 15 16 17 17 18 18 19 19 20 20 23 24 25 25 23 23 14 15
9 6 3 2 4 7 11 6 7 10 16 18 17 19 21 19 15 15 15 15 15 15 13 11 10 9 9 9 9 10 12 13 14 15 15 16 17 17 18 20 20 22 24 25 26 24 24 17 16
16 13 9 6 5 9 11 18 9 14 15 17 19 20 17 17 17 15 14 14 14 12 11 9 8 7 7 7 9 10 11 12 14 15 16 18 18 17 18 19 22 24 27 27 25 22 21 16 18
23 19 15 11 9 11 15 16 11 10 10 16 16 14 16 17 17 15 13 11 10 10 9 7 6 4 3 5 9 10 12 15 17 18 19 18 17 19 21 24 26 27 29 29 26 21 19 18 24
29 27 23 18 14 12 16 15 10 10 13 14 14 15 16 17 17 16 14 13 11 10 8 6 4 2 3 8 10 12 15 16 18 19 20 18 20 22 24 26 28 30 31 26 21 18 20 21 21
33 35 32 25 20 18 18 15 15 15 15 17 17 15 14 16 14 14 14 14 12 11 9 8 7 5 5 10 12 13 15 18 19 20 19 20 23 25 28 30 33 31 30 25 23 24 26 28 32
41 42 38 34 29 27 22 20 21 18 18 19 20 18 15 15 15 14 15 14 14 12 11 9 8 8 9 11 14 16 17 19 19 18 20 23 26 29 31 34 36 34 31 28 26 27 29 30 33
51 46 46 40 36 32 29 25 23 22 23 24 24 24 22 20 21 21 18 17 16 15 13 11 11 11 13 15 16 18 20 21 20 20 21 24 28 32 35 38 39 36 33 32 31 32 38 40 40
58 54 48 44 38 33 35 29 28 28 26 27 27 29 29 27 23 24 23 22 20 17 16 15 15 16 17 18 19 20 22 22 23 23 24 26 30 33 37 40 43 40 35 36 38 42 42 38 39
65 63 56 51 48 46 42 36 35 33 32 28 28 31 33 31 29 29 27 25 21 20 19 20 20 20 22 22 21 22 23 23 25 27 25 28 32 35 38 40 43 43 40 41 44 43 42 42 44
69 71 61 59 56 54 46 45 44 43 39 35 35 33 34 35 32 32 31 28 24 24 23 24 25 26 27 26 25 24 26 26 27 29 29 31 34 36 40 45 46 46 42 43 45 45 44 46 46
75 73 72 68 62 53 53 52 47 50 46 47 40 37 40 38 36 35 34 31 30 28 27 29 29 29 29 30 30 28 28 29 31 31 32 35 36 42 41 44 47 47 47 43 45 47 47 45 45
80 80 76 77 72 64 60 54 54 55 53 50 45 41 43 46 40 38 39 36 35 34 33 33 33 32 33 33 33 32 33 35 34 35 36 38 40 42 46 48 51 51 51 48 46 45 48 50 48
67 81 83 83 77 72 66 58 60 61 62 58 53 47 46 54 46 45 42 40 39 39 39 38 38 36 36 36 36 37 38 40 39 38 40 41 44 45 47 50 54 55 54 53 50 51 51 53 54
Wind_Direction
210 208 211 236 234 242 239 241 249 254 263 257 260 298 268 270 287 254 263 266 269 268 268 272 280 286 293 296 295 292 295 294 304 310 315 321 319 331 338 353 44 62 21 24 24 30 41 70 87
199 193 201 256 238 189 218 223 242 250 257 261 262 255 266 256 249 265 272 267 268 266 268 273 279 286 290 293 294 299 298 299 305 311 315 322 329 334 335 357 89 49 11 23 23 35 44 53 95
202 197 195 201 246 246 236 231 241 244 249 258 260 260 260 271 270 270 270 271 274 275 276 277 281 286 280 283 292 292 303 310 307 313 317 330 331 336 352 42 97 29 7 9 21 34 39 45 59
205 203 216 222 237 253 246 241 245 244 248 251 253 259 264 266 270 270 272 274 276 276 275 282 276 278 285 290 296 310 312 308 310 316 328 334 351 7 39 67 44 360 358 19 19 23 26 38 46
204 211 216 224 231 240 240 241 244 249 251 256 259 263 267 270 274 280 279 281 277 274 279 273 274 275 295 304 306 311 308 310 319 328 344 11 33 37 37 37 19 4 4 359 8 5 17 33 37
209 218 221 226 227 235 240 247 249 251 254 256 260 265 271 276 274 278 275 272 260 270 266 272 275 285 288 299 296 305 306 317 330 351 21 38 42 51 47 31 22 17 18 22 24 18 16 36 37
226 224 231 224 233 237 243 248 254 256 256 260 263 262 264 262 268 264 259 269 264 262 275 290 290 294 294 292 293 301 316 326 357 16 25 49 51 62 57 46 47 59 59 51 43 38 39 42 47
280 249 234 236 235 243 250 257 258 260 262 267 267 257 254 245 252 253 256 263 266 274 286 288 288 291 286 289 301 319 331 10 36 52 65 53 54 59 63 66 58 51 42 40 41 42 40 35 41
253 251 253 250 241 244 241 249 250 257 256 258 250 251 246 245 251 255 253 262 277 283 283 284 283 276 294 307 321 22 69 80 73 72 67 72 69 46 62 56 51 49 43 40 43 44 40 42 40
177 259 264 262 254 245 239 240 242 248 256 258 258 259 256 251 257 253 250 266 274 273 263 258 275 303 312 66 97 91 81 78 81 82 73 67 65 56 51 48 44 36 42 42 38 31 42 44 37
166 228 248 258 245 242 237 236 239 246 249 253 252 254 255 247 245 241 242 241 229 255 278 286 298 321 112 109 102 90 84 71 72 73 71 63 62 54 47 37 30 31 37 36 21 34 33 35 37
172 194 246 243 232 235 237 239 240 244 245 245 244 233 222 216 214 209 212 222 253 289 289 276 165 128 119 110 101 87 80 68 66 66 74 68 57 45 36 28 23 23 29 26 26 20 25 35 28
172 211 222 240 223 231 231 232 226 219 221 204 180 160 166 207 209 224 225 222 274 263 182 141 132 122 110 101 88 88 76 72 63 63 57 43 38 31 24 21 13 10 9 10 12 16 26 22 25
45 337 261 268 237 230 244 227 201 210 218 203 187 191 207 221 229 229 190 136 138 138 133 132 123 115 105 98 95 81 67 68 60 49 45 40 31 28 25 21 15 11 8 2 2 6 11 10 14
40 36 325 258 238 231 226 222 222 231 224 219 223 217 168 166 144 140 136 138 137 136 133 125 122 114 105 97 88 75 66 60 53 39 32 27 20 19 15 10 6 6 3 3 3 1 2 4 18
68 54 58 12 276 244 218 225 235 228 244 235 233 171 152 144 135 139 141 139 139 134 131 127 119 112 102 94 86 77 65 54 39 30 25 18 9 7 6 4 1 2 359 359 356 359 355 360 12
255 291 22 49 31 26 197 237 247 248 239 218 187 151 153 140 141 145 144 143 137 136 130 125 117 109 101 93 81 62 53 45 34 25 15 13 6 1 2 2 1 2 357 355 351 345 350 349 9
257 249 230 210 86 105 162 197 317 226 202 182 154 150 145 145 149 148 147 147 142 138 137 128 122 108 92 76 59 47 42 33 25 20 14 8 1 359 358 358 357 354 352 348 347 346 349 339 340
247 252 232 216 225 135 150 164 195 179 184 163 156 157 156 152 153 153 149 147 146 145 143 140 137 118 89 58 36 28 21 16 9 7 0 359 356 356 355 351 352 347 346 343 344 345 340 340 332
240 242 245 231 205 179 164 166 185 190 185 174 172 172 163 156 153 152 154 157 161 162 161 169 160 137 72 27 17 9 4 1 356 355 352 353 354 353 351 349 345 342 342 340 338 339 339 327 331
244 242 237 236 221 209 197 188 200 193 202 202 200 179 172 167 162 165 168 171 176 180 186 199 207 213 326 344 353 357 353 348 350 348 347 349 351 348 346 342 339 338 338 339 334 330 335 333 344
240 245 243 230 229 216 211 206 204 204 207 212 196 192 193 181 184 188 190 192 196 205 211 226 244 257 297 324 336 340 340 341 345 343 343 345 344 340 341 341 339 336 335 333 328 317 319 325 329
231 236 239 236 226 229 221 214 210 210 205 210 212 204 206 214 218 218 215 218 222 227 231 234 240 258 290 309 321 327 332 336 340 337 335 336 338 339 339 341 338 333 337 337 320 321 325 327 330
232 231 237 233 231 229 231 221 219 219 217 216 214 217 217 226 228 234 238 235 237 243 244 246 248 264 286 303 314 324 328 334 336 329 326 332 333 335 337 340 336 334 329 330 323 324 324 325 328
235 233 233 238 235 236 236 227 234 229 224 227 226 225 227 235 242 242 246 243 245 252 260 262 262 272 286 301 311 320 324 327 325 322 323 326 327 330 333 335 335 331 324 326 328 328 326 322 318
234 234 229 232 236 237 237 231 237 233 228 221 203 235 236 237 244 251 252 250 252 256 258 265 274 283 291 299 305 315 319 319 317 317 317 320 320 322 325 329 331 332 324 323 326 330 327 323 321
237 240 237 231 232 233 235 235 235 239 231 234 231 234 237 241 242 245 250 252 253 255 258 262 273 282 288 295 302 309 310 309 311 314 313 313 316 319 322 328 330 332 325 319 322 326 326 325 325
240 236 237 236 233 234 233 235 236 238 240 240 231 234 242 239 241 247 250 253 256 259 260 265 273 279 288 294 300 304 304 304 304 309 313 314 314 315 318 321 326 326 324 315 314 317 321 327 324
239 239 239 240 235 231 229 233 238 241 242 241 243 239 244 250 246 245 251 254 261 261 263 269 274 280 287 291 297 301 302 302 302 307 310 311 310 313 317 320 324 325 323 318 312 316 319 322 325
248 239 238 240 238 236 233 229 236 239 239 243 241 237 241 247 249 250 249 254 256 260 265 271 274 278 284 289 294 297 298 299 303 305 306 306 307 311 315 318 322 322 321 318 313 310 316 318 323
Height
10995 11002 11007 11000 10993 10995 10995 11000 11003 11003 11004 11006 11008 11011 11011 11011 11008 11009 11009 11009 11009 11009 11009 11007 11004 11001 10999 10997 10994 10991 10989 10986 10983 10980 10977 10974 10971 10968 10965 10962 10960 10956 10953 10951 10947 10943 10940 10937 10937
10992 11001 11014 11006 10988 10991 10989 10995 10999 11002 11002 11004 11006 11009 11008 11008 11006 11005 11005 11005 11005 11005 11004 11002 11000 10999 10996 10994 10991 10990 10987 10984 10982 10979 10976 10972 10968 10965 10963 10961 10960 10957 10955 10952 10948 10945 10942 10940 10938
10992 10999 10995 11004 10980 10987 10989 10991 10997 10999 11000 11000 11002 11001 11003 11003 11003 11002 11001 11001 11000 11000 10999 10998 10997 10994 10993 10990 10989 10987 10984 10981 10979 10977 10973 10970 10967 10963 10961 10961 10961 10958 10957 10954 10950 10947 10945 10942 10940
10988 10993 10993 10985 10982 10983 10985 10990 10995 10996 10996 10998 10998 10998 10999 10998 10998 10997 10997 10997 10996 10996 10994 10994 10994 10992 10990 10988 10987 10984 10981 10979 10976 10974 10971 10969 10966 10963 10962 10962 10962 10960 10958 10956 10952 10949 10947 10943 10941
10982 10983 10986 10985 10983 10984 10987 10990 10993 10993 10993 10993 10994 10994 10995 10994 10993 10992 10992 10992 10992 10992 10991 10991 10991 10989 10988 10986 10984 10982 10979 10976 10975 10973 10971 10969 10966 10963 10963 10963 10962 10960 10958 10955 10952 10950 10947 10945 10943
10976 10978 10982 10986 10983 10985 10987 10989 10989 10989 10989 10990 10990 10991 10989 10989 10989 10989 10989 10989 10989 10989 10989 10989 10988 10987 10986 10984 10982 10979 10977 10976 10974 10972 10971 10968 10966 10964 10965 10965 10963 10960 10957 10954 10951 10948 10945 10944 10944
10971 10975 10976 10977 10981 10983 10983 10984 10984 10986 10985 10985 10987 10987 10986 10987 10987 10987 10987 10987 10987 10987 10987 10987 10986 10985 10983 10981 10979 10977 10976 10975 10974 10971 10969 10967 10966 10964 10965 10966 10964 10960 10958 10955 10953 10949 10945 10943 10945
10970 10973 10972 10974 10974 10976 10978 10979 10980 10980 10982 10982 10982 10982 10983 10984 10984 10985 10986 10985 10985 10986 10985 10984 10983 10981 10979 10979 10978 10977 10976 10975 10974 10971 10970 10971 10970 10969 10967 10965 10965 10962 10959 10958 10955 10951 10949 10947 10945
10960 10971 10971 10971 10972 10973 10974 10975 10976 10977 10978 10978 10978 10979 10980 10980 10981 10982 10982 10983 10983 10982 10981 10981 10980 10979 10979 10978 10977 10977 10976 10976 10975 10972 10972 10972 10972 10974 10969 10966 10965 10963 10961 10957 10954 10952 10951 10951 10949
10961 10965 10967 10971 10971 10970 10971 10972 10973 10974 10974 10975 10974 10976 10976 10976 10977 10979 10980 10980 10980 10979 10978 10979 10979 10979 10979 10978 10978 10978 10977 10977 10977 10974 10973 10975 10974 10974 10971 10968 10966 10964 10963 10959 10956 10953 10952 10952 10952
10963 10962 10962 10964 10964 10966 10968 10968 10970 10971 10971 10972 10972 10972 10972 10973 10974 10976 10977 10978 10978 10977 10978 10978 10978 10979 10979 10980 10979 10979 10979 10979 10979 10977 10975 10975 10974 10973 10972 10971 10968 10965 10965 10962 10959 10956 10956 10954 10955
10963 10960 10959 10961 10963 10964 10965 10966 10966 10968 10969 10969 10970 10970 10970 10971 10972 10973 10975 10976 10976 10977 10977 10977 10979 10980 10981 10981 10980 10980 10980 10981 10981 10981 10980 10979 10978 10977 10976 10973 10969 10965 10966 10964 10962 10959 10959 10957 10954
10968 10964 10962 10960 10960 10962 10962 10964 10965 10966 10967 10968 10968 10970 10970 10971 10972 10973 10973 10974 10975 10976 10977 10979 10981 10982 10982 10983 10983 10982 10982 10982 10982 10982 10982 10981 10980 10978 10977 10974 10970 10966 10963 10963 10963 10961 10958 10955 10952
10961 10960 10958 10957 10959 10961 10962 10964 10965 10966 10967 10968 10968 10968 10969 10969 10971 10972 10972 10973 10975 10977 10979 10981 10982 10983 10983 10984 10984 10984 10984 10983 10983 10983 10982 10981 10979 10978 10975 10974 10972 10968 10963 10961 10959 10956 10953 10952 10951
10962 10960 10959 10957 10958 10959 10963 10966 10966 10967 10967 10967 10967 10966 10967 10968 10969 10971 10972 10974 10977 10979 10981 10982 10983 10984 10984 10985 10985 10986 10985 10984 10984 10983 10981 10980 10979 10976 10974 10972 10970 10969 10965 10963 10960 10956 10954 10952 10950
10965 10963 10961 10959 10958 10959 10962 10964 10965 10965 10967 10967 10965 10965 10966 10967 10969 10972 10975 10977 10979 10981 10983 10984 10985 10985 10986 10986 10987 10987 10986 10986 10984 10983 10981 10979 10978 10976 10974 10972 10969 10967 10965 10963 10960 10957 10955 10953 10950
10965 10963 10962 10959 10958 10958 10959 10963 10962 10963 10963 10964 10964 10963 10966 10967 10970 10973 10976 10979 10981 10983 10984 10985 10986 10987 10987 10988 10988 10988 10987 10986 10985 10983 10981 10980 10978 10975 10973 10971 10969 10966 10964 10961 10958 10956 10953 10951 10948
10964 10963 10962 10961 10960 10957 10957 10962 10962 10962 10962 10963 10962 10965 10967 10969 10972 10974 10977 10979 10981 10983 10985 10986 10987 10988 10989 10989 10989 10989 10988 10986 10985 10983 10982 10980 10977 10974 10972 10970 10968 10966 10962 10959 10956 10952 10950 10947 10946
10960 10960 10960 10960 10962 10959 10959 10960 10961 10961 10966 10963 10964 10966 10968 10969 10972 10975 10977 10980 10982 10984 10985 10987 10988 10989 10989 10989 10989 10988 10988 10986 10984 10983 10981 10978 10976 10973 10971 10968 10966 10962 10959 10956 10952 10949 10946 10944 10942
10955 10957 10958 10958 10960 10959 10958 10961 10962 10964 10965 10965 10967 10968 10969 10970 10973 10975 10978 10981 10982 10984 10986 10987 10989 10989 10989 10989 10988 10988 10987 10985 10983 10981 10978 10976 10973 10971 10969 10965 10962 10959 10957 10952 10949 10947 10944 10942 10939
10950 10952 10953 10955 10958 10959 10958 10958 10961 10962 10965 10967 10968 10969 10970 10971 10972 10975 10977 10979 10982 10983 10985 10987 10988 10988 10988 10988 10988 10987 10985 10983 10982 10979 10976 10974 10971 10968 10966 10964 10961 10957 10953 10950 10947 10943 10941 10937 10934
10945 10945 10947 10951 10953 10954 10957 10958 10960 10962 10964 10967 10968 10970 10971 10972 10974 10975 10977 10978 10980 10981 10983 10985 10986 10987 10987 10986 10986 10985 10984 10982 10979 10977 10975 10972 10969 10967 10964 10961 10957 10953 10948 10945 10942 10939 10936 10934 10930
10934 10935 10939 10943 10948 10950 10953 10955 10955 10960 10962 10966 10968 10969 10970 10972 10974 10975 10976 10977 10978 10979 10981 10982 10984 10984 10984 10984 10984 10983 10982 10980 10978 10975 10971 10969 10966 10963 10959 10956 10951 10946 10944 10940 10938 10934 10931 10927 10924
10919 10926 10930 10935 10941 10945 10948 10952 10954 10955 10959 10962 10963 10965 10967 10967 10970 10972 10973 10975 10976 10978 10978 10979 10981 10982 10982 10982 10981 10980 10978 10976 10974 10971 10969 10967 10963 10959 10954 10950 10947 10943 10938 10935 10932 10929 10925 10920 10917
10908 10914 10923 10928 10935 10943 10942 10948 10949 10952 10955 10957 10958 10960 10961 10963 10966 10969 10971 10972 10973 10974 10976 10976 10977 10978 10978 10978 10978 10977 10975 10973 10970 10968 10966 10963 10959 10956 10951 10947 10942 10938 10934 10929 10926 10922 10918 10917 10914
10891 10899 10910 10918 10924 10930 10934 10942 10943 10944 10946 10950 10954 10954 10956 10958 10961 10964 10966 10967 10969 10969 10971 10972 10973 10973 10974 10974 10973 10972 10970 10969 10966 10964 10962 10958 10955 10952 10948 10944 10938 10931 10926 10922 10919 10917 10913 10910 10906
10884 10886 10903 10905 10910 10915 10928 10930 10933 10935 10941 10944 10948 10948 10948 10952 10954 10958 10960 10962 10964 10964 10966 10967 10968 10969 10969 10968 10968 10967 10965 10963 10962 10959 10957 10953 10950 10947 10943 10935 10931 10926 10921 10916 10913 10909 10907 10904 10897
10867 10873 10881 10890 10899 10912 10914 10918 10926 10926 10932 10937 10940 10942 10940 10944 10946 10950 10953 10955 10956 10958 10959 10961 10962 10963 10963 10962 10961 10961 10959 10957 10955 10954 10951 10948 10945 10938 10937 10932 10927 10922 10917 10912 10908 10904 10898 10895 10890
10846 10856 10867 10873 10882 10895 10902 10911 10915 10917 10921 10925 10927 10930 10932 10933 10939 10942 10945 10948 10949 10950 10952 10954 10955 10956 10956 10956 10954 10953 10951 10949 10948 10947 10945 10941 10937 10935 10928 10923 10919 10914 10909 10904 10899 10895 10889 10882 10881
10832 10843 10847 10851 10872 10882 10889 10903 10903 10904 10906 10909 10914 10920 10923 10922 10928 10933 10937 10939 10941 10943 10944 10946 10947 10948 10948 10948 10947 10945 10943 10942 10941 10939 10937 10934 10929 10926 10922 10917 10911 10905 10901 10896 10891 10885 10882 10875 10869